FW8537 Weather Reports


Display with metric or nautical units.
time (UTC)temp
F
wind
direction
speed
MPH
gust
MPH
rain 1hr
in
rain 24hr
in
rain mn
in
humidity
%
barometer
mb
20260510111136 74 219 0.0 3.0 0.01 0.20 0.01 95 1011.5
20260510110630 74 213 0.0 3.0 0.01 0.20 0.01 95 1011.5
20260510110131 74 192 0.0 1.0 0.01 0.20 0.01 95 1011.5
20260510110018 73 171 0.0 1.0 0.01 0.20 0.01 95 1011.1
20260510105629 74 180 0.0 1.0 0.01 0.20 0.01 95 1011.3
20260510105130 74 131 0.0 0.0 0.01 0.20 0.01 95 1011.3
20260510104928 74 131 0.0 0.0 0.01 0.20 0.01 95 1011.3
20260510104501 73 131 0.0 0.0 0.01 0.20 0.01 95 1010.9
20260510104130 74 131 0.0 0.0 0.01 0.20 0.01 95 1011.0
20260510103629 74 131 0.0 0.0 0.01 0.20 0.01 95 1011.0
20260510103128 74 131 0.0 0.0 0.00 0.19 0.00 95 1011.0
20260510103045 73 131 0.0 0.0 0.00 0.19 0.00 95 1010.8
20260510102631 74 131 0.0 1.0 0.00 0.19 0.00 95 1010.9
20260510102133 74 131 0.0 1.0 0.00 0.19 0.00 95 1010.9
20260510101632 74 131 0.0 1.0 0.00 0.19 0.00 95 1010.9
20260510101532 73 131 0.0 1.0 0.00 0.19 0.00 95 1010.5
20260510101131 74 131 0.0 1.0 0.00 0.19 0.00 95 1010.6
20260510100632 74 131 0.0 0.0 0.00 0.19 0.00 95 1010.6
20260510100135 74 129 0.0 0.0 0.00 0.19 0.00 95 1010.6
20260510100033 73 129 0.0 0.0 0.00 0.19 0.00 95 1010.4
20260510095631 74 129 0.0 0.0 0.00 0.19 0.00 95 1010.6
20260510095132 74 129 0.0 0.0 0.00 0.19 0.00 95 1010.6
20260510094631 74 129 0.0 1.0 0.00 0.19 0.00 95 1010.6
20260510094518 73 129 0.0 1.0 0.00 0.19 0.00 95 1010.3
20260510094135 74 129 0.0 1.0 0.00 0.19 0.00 95 1010.5
20260510093630 74 129 0.0 1.0 0.00 0.19 0.00 95 1010.5
20260510093129 74 129 0.0 1.0 0.00 0.19 0.00 95 1010.5
20260510093005 73 129 0.0 1.0 0.00 0.19 0.00 95 1010.4
20260510092631 74 129 0.0 2.0 0.00 0.19 0.00 95 1010.5
20260510092454 74 194 0.0 2.0 0.00 0.19 0.00 95 1010.5
20260510092153 74 129 0.0 2.0 0.00 0.19 0.00 95 1010.5
20260510091505 73 194 0.0 2.0 0.00 0.19 0.00 95 1010.3
20260510091107 74 222 0.0 2.0 0.00 0.19 0.00 95 1010.5
20260510090607 74 226 0.0 2.0 0.00 0.19 0.00 95 1010.5
20260510090108 74 219 0.0 2.0 0.00 0.19 0.00 94 1010.5
20260510090002 73 219 0.0 2.0 0.00 0.19 0.00 94 1010.3
20260510085605 74 214 0.0 2.0 0.00 0.19 0.00 94 1010.4
20260510085105 74 218 0.0 2.0 0.00 0.19 0.00 95 1010.4
20260510084603 74 255 0.0 1.0 0.00 0.19 0.00 95 1010.4
20260510084557 74 255 0.0 1.0 0.00 0.19 0.00 95 1010.3
20260510084103 74 277 0.0 1.0 0.00 0.19 0.00 95 1010.3
20260510083601 74 277 0.0 0.0 0.00 0.19 0.00 95 1010.3
20260510083102 74 277 0.0 0.0 0.00 0.19 0.00 94 1010.3
20260510083037 73 277 0.0 0.0 0.00 0.19 0.00 94 1009.9
20260510082603 74 277 0.0 0.0 0.00 0.19 0.00 94 1010.0
20260510082103 74 277 0.0 0.0 0.00 0.19 0.00 94 1010.0
20260510081602 74 277 0.0 1.0 0.00 0.19 0.00 94 1010.0
20260510081533 74 277 0.0 0.0 0.00 0.19 0.00 94 1010.1
20260510081110 74 277 0.0 1.0 0.00 0.19 0.00 94 1010.2
20260510080601 74 277 0.0 1.0 0.00 0.19 0.00 94 1010.2
20260510080009 74 277 0.0 1.0 0.00 0.19 0.00 94 1009.9
20260510075604 74 277 0.0 1.0 0.00 0.19 0.00 94 1010.0
20260510075104 74 277 0.0 0.0 0.00 0.19 0.00 94 1010.0
20260510074602 74 277 0.0 0.0 0.00 0.19 0.00 94 1010.0
20260510074503 74 277 0.0 0.0 0.00 0.19 0.00 94 1009.9
20260510074102 74 277 0.0 0.0 0.00 0.19 0.00 94 1010.0
20260510073603 74 277 0.0 0.0 0.00 0.19 0.00 94 1010.0
20260510073102 74 277 0.0 0.0 0.00 0.19 0.00 94 1010.0
20260510073004 74 277 0.0 0.0 0.00 0.19 0.00 94 1010.0
20260510072606 74 277 0.0 1.0 0.00 0.19 0.00 94 1010.1
20260510072102 74 277 0.0 1.0 0.00 0.19 0.00 94 1010.1
20260510071602 74 277 0.0 1.0 0.00 0.19 0.00 94 1010.1
20260510071559 74 277 0.0 1.0 0.00 0.19 0.00 94 1010.0
20260510071103 74 277 0.0 2.0 0.00 0.19 0.00 94 1010.1
20260510070601 74 277 1.0 2.0 0.00 0.19 0.00 94 1010.1
20260510070034 74 296 0.0 2.0 0.00 0.19 0.00 94 1010.3
20260510065601 74 297 0.0 0.0 0.00 0.19 0.00 94 1010.5
20260510065101 74 283 0.0 0.0 0.00 0.19 0.00 94 1010.5
20260510064550 74 283 0.0 0.0 0.00 0.19 0.00 94 1010.6
20260510064530 74 283 0.0 0.0 0.00 0.19 0.00 94 1010.4
20260510064341 74 267 0.0 0.0 0.00 0.19 0.00 94 1010.6
20260510063543 74 267 0.0 0.0 0.00 0.19 0.00 94 1010.6
20260510063032 74 266 0.0 0.0 0.00 0.19 0.00 94 1010.5
20260510063004 74 266 0.0 0.0 0.00 0.19 0.00 94 1010.4
20260510062828 74 282 0.0 0.0 0.00 0.19 0.00 94 1010.5
20260510062030 74 282 0.0 1.0 0.00 0.19 0.00 94 1010.5
20260510061531 75 282 0.0 2.0 0.00 0.19 0.00 94 1010.5
20260510061505 74 282 0.0 2.0 0.00 0.19 0.00 94 1010.4
20260510061029 75 296 1.0 2.0 0.00 0.19 0.00 94 1010.5
20260510060529 75 314 1.0 3.0 0.00 0.19 0.00 94 1010.5
20260510060029 75 333 1.0 3.0 0.00 0.19 0.00 94 1010.8
20260510060006 74 281 1.0 3.0 0.00 0.19 0.00 94 1010.7
20260510055529 75 294 1.0 3.0 0.00 0.19 0.00 94 1010.8
20260510055030 75 304 0.0 1.0 0.00 0.19 0.00 94 1010.8
20260510054530 75 301 0.0 1.0 0.00 0.19 0.00 93 1010.9
20260510054505 74 301 0.0 1.0 0.00 0.19 0.00 93 1010.8
20260510054029 75 301 0.0 0.0 0.00 0.19 0.00 93 1010.9
20260510053531 75 301 0.0 0.0 0.00 0.19 0.00 93 1010.9
20260510053030 75 301 0.0 0.0 0.00 0.19 0.00 93 1011.0
20260510053004 74 301 0.0 0.0 0.00 0.19 0.00 93 1010.9
20260510052535 75 301 0.0 0.0 0.00 0.19 0.00 93 1011.0
20260510052034 75 301 0.0 0.0 0.00 0.19 0.00 93 1011.0
20260510051532 75 301 0.0 0.0 0.00 0.19 0.00 93 1011.0
20260510051504 75 301 0.0 0.0 0.00 0.19 0.00 93 1010.9
20260510051324 75 301 0.0 0.0 0.00 0.19 0.00 93 1011.0
20260510050530 76 301 0.0 0.0 0.00 0.19 0.00 93 1011.0
20260510050030 76 301 0.0 0.0 0.00 0.19 0.00 93 1011.1
20260510050006 75 301 0.0 0.0 0.00 0.19 0.00 93 1010.9
20260510045530 76 301 0.0 0.0 0.00 0.19 0.00 93 1011.1
20260510045030 76 301 0.0 0.0 0.00 0.19 0.00 93 1011.1
20260510044557 75 301 0.0 0.0 0.00 0.19 0.00 93 1011.0
20260510044529 76 301 0.0 0.0 0.00 0.19 0.00 93 1011.1
20260510044031 76 301 0.0 0.0 0.00 0.19 0.00 93 1011.1
20260510043530 76 301 0.0 0.0 0.00 0.19 0.00 93 1011.1
20260510043045 75 301 0.0 1.0 0.00 0.19 0.00 93 1011.1
20260510043032 76 301 0.0 1.0 0.00 0.19 0.00 93 1011.2
20260510042531 76 301 0.0 1.0 0.00 0.19 0.00 93 1011.2
20260510042032 76 302 0.0 0.0 0.00 0.19 0.00 93 1011.2
20260510041554 75 302 0.0 0.0 0.00 0.19 0.00 93 1011.3
20260510041532 76 302 0.0 0.0 0.00 0.19 0.00 93 1011.4
20260510041031 76 302 0.0 0.0 0.00 0.19 0.00 93 1011.4
20260510040530 76 302 0.0 0.0 0.00 0.19 0.00 93 1011.4
20260510040035 75 302 0.0 0.0 0.00 0.19 0.19 93 1011.2
20260510040030 76 302 0.0 0.0 0.00 0.19 0.00 93 1011.3
20260510035529 76 302 0.0 0.0 0.00 0.19 0.19 93 1011.3
20260510035028 76 302 0.0 0.0 0.00 0.19 0.19 93 1011.3
20260510034525 76 302 0.0 0.0 0.00 0.19 0.19 93 1011.3
20260510034520 76 302 0.0 0.0 0.00 0.19 0.19 93 1011.2
20260510034025 76 302 0.0 1.0 0.00 0.19 0.19 93 1011.3
20260510033524 76 302 0.0 1.0 0.00 0.19 0.19 93 1011.3
20260510033025 76 341 0.0 1.0 0.00 0.19 0.19 93 1011.0
20260510033006 76 341 0.0 1.0 0.00 0.19 0.19 93 1010.9
20260510032522 76 14 0.0 1.0 0.00 0.19 0.19 93 1011.0
20260510032015 76 19 0.0 0.0 0.00 0.19 0.19 93 1011.0
20260510031545 76 19 0.0 1.0 0.00 0.19 0.19 93 1010.8
20260510031510 76 19 0.0 1.0 0.00 0.19 0.19 93 1011.0
20260510031005 76 19 0.0 1.0 0.00 0.19 0.19 93 1011.0
20260510030502 76 19 0.0 0.0 0.00 0.19 0.19 93 1011.0
20260510030032 76 19 0.0 0.0 0.00 0.19 0.19 93 1010.5
20260510030002 76 19 0.0 0.0 0.00 0.19 0.19 92 1010.6
20260510025501 76 19 0.0 1.0 0.00 0.19 0.19 92 1010.6
20260510025002 76 19 0.0 1.0 0.00 0.19 0.19 92 1010.6
20260510024522 76 19 0.0 1.0 0.00 0.19 0.19 92 1010.8
20260510024502 76 19 0.0 1.0 0.00 0.19 0.19 92 1010.9
20260510024001 76 19 0.0 1.0 0.00 0.19 0.19 92 1010.9
20260510023502 76 18 0.0 0.0 0.00 0.19 0.19 92 1010.9
20260510023009 76 18 0.0 0.0 0.00 0.19 0.19 92 1010.3
20260510023004 76 18 0.0 0.0 0.00 0.19 0.19 92 1010.4
20260510022503 76 19 0.0 1.0 0.00 0.19 0.19 92 1010.4
20260510022001 76 19 0.0 2.0 0.03 0.19 0.19 92 1010.4
20260510021542 76 18 0.0 2.0 0.09 0.19 0.19 92 1010.3
20260510021502 76 18 0.0 2.0 0.12 0.19 0.19 92 1010.4
20260510021254 77 85 0.0 2.0 0.19 0.19 0.19 92 1010.4
20260510020501 77 85 0.0 2.0 0.19 0.19 0.19 92 1010.4
20260510020023 76 303 0.0 3.0 0.19 0.19 0.19 91 1009.9
20260510020003 77 303 0.0 3.0 0.19 0.19 0.19 91 1010.0
20260510015751 77 299 0.0 3.0 0.19 0.19 0.19 91 1010.0
20260510015001 77 348 1.0 4.0 0.19 0.19 0.19 91 1010.0
20260510014745 77 26 1.0 4.0 0.19 0.19 0.19 90 1010.1
20260510014256 77 333 1.0 3.0 0.19 0.19 0.19 90 1010.1
20260510013504 78 23 2.0 6.0 0.19 0.19 0.19 90 1010.1
20260510013108 78 342 1.0 7.0 0.19 0.19 0.19 89 1010.0
20260510013005 78 346 2.0 7.0 0.19 0.19 0.19 89 1010.5
20260510012503 79 81 2.0 7.0 0.19 0.19 0.19 87 1010.5
20260510012001 80 82 2.0 8.0 0.16 0.16 0.15 85 1010.5
20260510011540 81 252 3.0 10.0 0.09 0.09 0.09 82 1009.5
20260510011503 82 265 4.0 10.0 0.07 0.07 0.03 81 1009.6
20260510011004 83 295 5.0 14.0 0.00 0.00 0.00 79 1009.6
20260510010504 84 335 4.0 14.0 0.00 0.00 0.00 77 1009.6
20260510010041 84 17 4.0 12.0 0.00 0.00 0.00 78 1009.1
20260510010005 84 10 2.0 9.0 0.00 0.00 0.00 78 1009.2
20260510005802 84 217 2.0 5.0 0.00 0.00 0.00 80 1009.2
20260510005257 84 267 2.0 6.0 0.00 0.00 0.00 81 1009.2
20260510004509 83 319 2.0 10.0 0.00 0.00 0.00 81 1008.2
20260510004503 83 304 3.0 10.0 0.00 0.00 0.00 81 1008.3
20260510004003 83 292 3.0 10.0 0.00 0.00 0.00 82 1008.3
20260510003502 84 145 4.0 9.0 0.00 0.00 0.00 82 1008.3
20260510003055 83 134 6.0 9.0 0.00 0.00 0.00 82 1008.1
20260510003001 84 103 5.0 10.0 0.00 0.00 0.00 81 1008.2
20260510002501 84 128 4.0 10.0 0.00 0.00 0.00 81 1008.2
20260510002001 84 126 4.0 9.0 0.00 0.00 0.00 81 1008.2
20260510001532 83 111 4.0 8.0 0.00 0.00 0.00 80 1007.9
20260510001502 84 119 4.0 8.0 0.00 0.00 0.00 80 1008.0
20260510001002 84 115 5.0 7.0 0.00 0.00 0.00 80 1008.0
20260510000503 84 123 5.0 9.0 0.00 0.00 0.00 80 1008.0
20260510000032 84 129 5.0 9.0 0.00 0.00 0.00 79 1007.8
20260510000002 84 126 5.0 9.0 0.00 0.00 0.00 79 1007.9
20260509235501 84 124 5.0 8.0 0.00 0.00 0.00 80 1007.9
20260509235003 85 138 4.0 8.0 0.00 0.00 0.00 80 1007.9
20260509234508 84 130 4.0 8.0 0.00 0.00 0.00 79 1007.7
20260509234502 85 126 4.0 11.0 0.00 0.00 0.00 79 1007.8
20260509234002 85 121 6.0 11.0 0.00 0.00 0.00 79 1007.8
20260509233503 85 98 7.0 11.0 0.00 0.00 0.00 79 1007.8
20260509233009 85 120 7.0 11.0 0.00 0.00 0.00 79 1007.6
20260509233004 85 120 7.0 11.0 0.00 0.00 0.00 79 1007.7
20260509232756 85 123 6.0 11.0 0.00 0.00 0.00 80 1007.7
20260509232001 85 103 7.0 11.0 0.00 0.00 0.00 80 1007.7
20260509231501 85 111 6.0 11.0 0.00 0.00 0.00 80 1007.6
20260509231450 86 128 6.0 11.0 0.00 0.00 0.00 80 1007.7
20260509230948 86 138 5.0 11.0 0.00 0.00 0.00 80 1007.7
20260509230434 86 123 7.0 11.0 0.00 0.00 0.00 79 1007.7
20260509230053 86 101 6.0 11.0 0.00 0.00 0.00 80 1007.6
20260509225931 86 119 8.0 11.0 0.00 0.00 0.00 80 1007.6
20260509225431 86 117 7.0 11.0 0.00 0.00 0.00 79 1007.6
20260509224932 87 107 8.0 18.0 0.00 0.00 0.00 78 1007.6
20260509224543 86 117 9.0 18.0 0.00 0.00 0.00 78 1007.5
20260509224431 87 101 9.0 18.0 0.00 0.00 0.00 78 1007.6
20260509223930 87 119 9.0 14.0 0.00 0.00 0.00 77 1007.6
20260509223432 87 99 9.0 14.0 0.00 0.00 0.00 77 1007.6
20260509223032 87 121 9.0 14.0 0.00 0.00 0.00 76 1007.3
20260509222930 87 103 8.0 14.0 0.00 0.00 0.00 76 1007.5
20260509222430 88 124 7.0 13.0 0.00 0.00 0.00 77 1007.5
20260509221929 88 95 8.0 13.0 0.00 0.00 0.00 77 1007.5
20260509221531 88 131 7.0 13.0 0.00 0.00 0.00 77 1007.5
20260509221430 88 134 8.0 13.0 0.00 0.00 0.00 77 1007.6
20260509220930 88 127 8.0 13.0 0.00 0.00 0.00 76 1007.6
20260509220732 88 88 8.0 14.0 0.00 0.00 0.00 77 1007.6
20260509220019 88 118 10.0 13.0 0.00 0.00 0.00 76 1007.5
20260509215930 88 105 8.0 14.0 0.00 0.00 0.00 77 1007.6
20260509215431 88 120 9.0 14.0 0.00 0.00 0.00 76 1007.6
20260509214929 88 119 9.0 14.0 0.00 0.00 0.00 76 1007.6
20260509214505 88 126 7.0 15.0 0.00 0.00 0.00 76 1007.6
20260509214430 89 144 8.0 15.0 0.00 0.00 0.00 76 1007.7
20260509213931 89 96 8.0 15.0 0.00 0.00 0.00 76 1007.7
20260509213430 89 109 9.0 17.0 0.00 0.00 0.00 77 1007.7
20260509213005 88 117 8.0 17.0 0.00 0.00 0.00 77 1007.4
20260509212930 89 86 10.0 17.0 0.00 0.00 0.00 77 1007.5
20260509212430 89 116 9.0 14.0 0.00 0.00 0.00 76 1007.5
20260509212226 89 110 9.0 14.0 0.00 0.00 0.00 74 1007.5
20260509211504 89 102 8.0 14.0 0.00 0.00 0.00 75 1007.5
20260509211429 89 94 8.0 14.0 0.00 0.00 0.00 75 1007.6
20260509210929 89 127 7.0 14.0 0.00 0.00 0.00 74 1007.6
20260509210431 89 130 8.0 14.0 0.00 0.00 0.00 75 1007.6
20260509210005 89 94 8.0 14.0 0.00 0.00 0.00 73 1007.7
20260509205930 89 107 7.0 14.0 0.00 0.00 0.00 74 1007.8
20260509205727 89 108 6.0 14.0 0.00 0.00 0.00 73 1007.8
20260509204929 90 119 6.0 11.0 0.00 0.00 0.00 73 1007.8
20260509204722 90 93 6.0 11.0 0.00 0.00 0.00 72 1007.8
20260509204644 89 109 7.0 11.0 0.00 0.00 0.00 73 1007.7
20260509203930 90 126 5.0 11.0 0.00 0.00 0.00 72 1007.8
20260509203430 91 150 4.0 11.0 0.00 0.00 0.00 72 1007.8
20260509203045 91 134 4.0 11.0 0.00 0.00 0.00 70 1007.9
20260509202930 92 137 2.0 11.0 0.00 0.00 0.00 69 1008.0
20260509202727 92 74 1.0 3.0 0.00 0.00 0.00 66 1008.0
20260509201929 91 128 2.0 5.0 0.00 0.00 0.00 71 1008.0
20260509201531 90 130 1.0 5.0 0.00 0.00 0.00 70 1008.1
20260509201430 91 126 3.0 10.0 0.00 0.00 0.00 71 1008.2
20260509200931 90 87 4.0 10.0 0.00 0.00 0.00 72 1008.2
20260509200432 92 139 3.0 9.0 0.00 0.00 0.00 69 1008.2
20260509200035 91 213 2.0 14.0 0.00 0.00 0.00 70 1008.2
20260509195928 91 216 5.0 14.0 0.00 0.00 0.00 70 1008.4
20260509195421 90 109 6.0 14.0 0.00 0.00 0.00 70 1008.4
20260509194922 91 117 5.0 9.0 0.00 0.00 0.00 71 1008.4
20260509194531 90 128 5.0 11.0 0.00 0.00 0.00 68 1008.3
20260509194422 91 105 3.0 11.0 0.00 0.00 0.00 69 1008.4
20260509193919 92 101 4.0 16.0 0.00 0.00 0.00 66 1008.4
20260509193515 95 139 4.0 10.0 0.00 0.00 0.00 50 1008.4
20260509193454 94 121 4.0 16.0 0.00 0.00 0.00 57 1008.4
20260509193139 94 146 6.0 16.0 0.00 0.00 0.00 55 1008.3
20260509192424 94 146 4.0 10.0 0.00 0.00 0.00 53 1008.4
20260509191924 97 119 2.0 10.0 0.00 0.00 0.00 47 1008.4
20260509191532 96 261 2.0 8.0 0.00 0.00 0.00 48 1008.4
20260509191421 97 236 3.0 9.0 0.00 0.00 0.00 46 1008.5
20260509191205 96 231 3.0 9.0 0.00 0.00 0.00 47 1008.5
20260509190419 96 250 2.0 11.0 0.00 0.00 0.00 48 1008.5
20260509190042 96 215 3.0 9.0 0.00 0.00 0.00 49 1008.7
20260509185920 96 224 3.0 11.0 0.00 0.00 0.00 49 1008.8
20260509185410 96 253 4.0 15.0 0.00 0.00 0.00 46 1008.8
20260509184904 96 242 4.0 15.0 0.00 0.00 0.00 47 1008.8
20260509184536 96 214 4.0 14.0 0.00 0.00 0.00 47 1008.7
20260509184403 96 323 4.0 12.0 0.00 0.00 0.00 46 1008.8
20260509183903 96 226 4.0 10.0 0.00 0.00 0.00 49 1008.8
20260509183403 95 209 4.0 10.0 0.00 0.00 0.00 50 1008.8
20260509183028 95 217 6.0 8.0 0.00 0.00 0.00 49 1008.8
20260509182904 95 120 4.0 10.0 0.00 0.00 0.00 50 1008.9
20260509182403 96 215 4.0 11.0 0.00 0.00 0.00 49 1008.9
20260509181902 96 162 4.0 11.0 0.00 0.00 0.00 49 1008.9
20260509181503 95 146 3.0 10.0 0.00 0.00 0.00 51 1008.8
20260509181404 96 152 4.0 9.0 0.00 0.00 0.00 51 1008.9
20260509180902 95 202 4.0 12.0 0.00 0.00 0.00 50 1008.9
20260509180402 95 244 3.0 12.0 0.00 0.00 0.00 51 1008.9
20260509180006 95 113 3.0 10.0 0.00 0.00 0.00 49 1009.1
20260509175902 95 167 4.0 11.0 0.00 0.00 0.00 50 1009.2
20260509175402 95 156 4.0 14.0 0.00 0.00 0.00 50 1009.2
20260509174903 95 140 4.0 14.0 0.00 0.00 0.00 51 1009.2
20260509174558 94 192 2.0 11.0 0.00 0.00 0.00 51 1009.1
20260509174402 94 195 4.0 11.0 0.00 0.00 0.00 52 1009.3
20260509173903 94 165 4.0 18.0 0.00 0.00 0.00 50 1009.3
20260509173402 94 164 4.0 18.0 0.00 0.00 0.00 53 1009.3
20260509173054 93 109 4.0 12.0 0.00 0.00 0.00 53 1009.3
20260509172901 94 142 5.0 12.0 0.00 0.00 0.00 54 1009.4
20260509172402 94 201 5.0 11.0 0.00 0.00 0.00 53 1009.4
20260509171903 94 212 5.0 14.0 0.00 0.00 0.00 53 1009.4
20260509171539 93 181 3.0 14.0 0.00 0.00 0.00 54 1009.3
20260509171401 93 188 4.0 14.0 0.00 0.00 0.00 55 1009.4
20260509170902 94 128 4.0 12.0 0.00 0.00 0.00 53 1009.4
20260509170402 94 152 4.0 12.0 0.00 0.00 0.00 54 1009.4
20260509170023 94 247 3.0 12.0 0.00 0.00 0.00 53 1009.6
20260509165901 94 207 4.0 12.0 0.00 0.00 0.00 54 1009.7
20260509165400 93 219 4.0 12.0 0.00 0.00 0.00 53 1009.7
20260509165149 94 165 4.0 11.0 0.00 0.00 0.00 55 1009.7
20260509164506 93 275 4.0 10.0 0.00 0.00 0.00 56 1009.8
20260509164402 93 171 4.0 12.0 0.00 0.00 0.00 55 1009.9
20260509163902 92 215 4.0 12.0 0.00 0.00 0.00 56 1009.9
20260509163353 93 224 3.0 11.0 0.00 0.00 0.00 57 1009.9
20260509163005 92 229 4.0 10.0 0.00 0.00 0.00 56 1009.9
20260509162852 93 213 4.0 10.0 0.00 0.00 0.00 56 1010.0
20260509162343 92 249 4.0 13.0 0.00 0.00 0.00 58 1010.0
20260509162135 93 115 3.0 13.0 0.00 0.00 0.00 58 1010.0
20260509161505 93 229 3.0 8.0 0.00 0.00 0.00 56 1010.3
20260509161342 94 157 3.0 8.0 0.00 0.00 0.00 58 1010.4
20260509160841 93 208 3.0 7.0 0.00 0.00 0.00 57 1010.4
20260509160342 93 196 3.0 7.0 0.00 0.00 0.00 60 1010.4
20260509160007 92 122 3.0 7.0 0.00 0.00 0.00 60 1010.4
20260509155841 92 241 3.0 7.0 0.00 0.00 0.00 60 1010.5
20260509155343 92 108 3.0 11.0 0.00 0.00 0.00 60 1010.5
20260509155129 92 221 3.0 11.0 0.00 0.00 0.00 59 1010.5
20260509154504 91 188 3.0 9.0 0.00 0.00 0.00 60 1010.6
20260509154336 92 220 3.0 8.0 0.00 0.00 0.00 60 1010.8
20260509153836 92 234 2.0 8.0 0.00 0.00 0.00 60 1010.8
20260509153628 92 198 2.0 7.0 0.00 0.00 0.00 60 1010.8
20260509153003 91 133 1.0 7.0 0.00 0.00 0.00 60 1010.7
20260509152836 92 241 3.0 8.0 0.00 0.00 0.00 59 1010.8
20260509152338 91 261 3.0 9.0 0.00 0.00 0.00 60 1010.8
20260509151931 90 207 3.0 9.0 0.00 0.00 0.00 60 1010.9
20260509151912 91 218 2.0 9.0 0.00 0.00 0.00 60 1010.8
20260509151552 90 285 2.0 8.0 0.00 0.00 0.00 59 1010.7
20260509150833 90 223 3.0 10.0 0.00 0.00 0.00 58 1010.9
20260509150331 90 136 3.0 10.0 0.00 0.00 0.00 58 1010.9
20260509150046 89 220 4.0 9.0 0.00 0.00 0.00 59 1010.7
20260509145830 89 214 3.0 9.0 0.00 0.00 0.00 63 1010.8
20260509145332 89 216 3.0 9.0 0.00 0.00 0.00 64 1010.8
20260509145117 88 133 3.0 9.0 0.00 0.00 0.00 65 1010.8
20260509144532 88 229 3.0 9.0 0.00 0.00 0.00 66 1010.5
20260509144330 88 207 3.0 9.0 0.00 0.00 0.00 67 1010.7
20260509143830 87 112 3.0 9.0 0.00 0.00 0.00 69 1010.7
20260509143332 87 192 4.0 9.0 0.00 0.00 0.00 68 1010.7
20260509143029 86 190 3.0 7.0 0.00 0.00 0.00 69 1010.6
20260509142832 86 202 4.0 8.0 0.00 0.00 0.00 69 1010.7
20260509142331 85 218 3.0 8.0 0.00 0.00 0.00 71 1010.7
20260509141831 85 220 2.0 7.0 0.00 0.00 0.00 74 1010.7
20260509141534 85 132 3.0 7.0 0.00 0.00 0.00 75 1010.7
20260509141331 85 226 1.0 7.0 0.00 0.00 0.00 76 1010.8
20260509140829 84 126 2.0 7.0 0.00 0.00 0.00 79 1010.8
20260509140330 84 247 3.0 8.0 0.00 0.00 0.00 81 1010.8
20260509140008 83 221 4.0 8.0 0.00 0.00 0.00 80 1010.9
20260509135830 83 219 3.0 9.0 0.00 0.00 0.00 80 1011.0
20260509135331 83 250 2.0 9.0 0.00 0.00 0.00 83 1011.0
20260509135128 82 216 2.0 6.0 0.00 0.00 0.00 86 1011.0
20260509134505 81 212 1.0 5.0 0.00 0.00 0.00 87 1010.9
20260509134329 82 151 2.0 5.0 0.00 0.00 0.00 87 1011.0
20260509133830 81 213 2.0 7.0 0.00 0.00 0.00 88 1011.0
20260509133629 80 253 2.0 7.0 0.00 0.00 0.00 90 1011.0
20260509133100 79 208 2.0 7.0 0.00 0.00 0.00 90 1010.9
20260509132830 79 204 2.0 6.0 0.00 0.00 0.00 91 1011.0
20260509132423 79 279 1.0 5.0 0.00 0.00 0.00 93 1011.0
20260509132405 79 191 2.0 5.0 0.00 0.00 0.00 92 1011.0
20260509131605 78 211 2.0 5.0 0.00 0.00 0.00 93 1010.7
20260509131329 78 221 1.0 5.0 0.00 0.00 0.00 94 1010.8
20260509130830 78 234 2.0 5.0 0.00 0.00 0.00 94 1010.8
20260509130330 77 205 2.0 6.0 0.00 0.00 0.00 94 1010.8
20260509130053 76 201 2.0 6.0 0.00 0.00 0.00 94 1010.4
20260509125830 77 186 2.0 6.0 0.00 0.00 0.00 94 1010.6
20260509125642 76 231 2.0 6.0 0.00 0.00 0.00 94 1010.6
20260509124831 77 212 2.0 6.0 0.00 0.00 0.00 95 1010.6
20260509124543 76 219 0.0 6.0 0.00 0.00 0.00 95 1010.3
20260509124332 76 221 2.0 6.0 0.00 0.00 0.00 94 1010.5
20260509123832 76 221 1.0 5.0 0.00 0.00 0.00 95 1010.5
20260509123329 76 216 1.0 4.0 0.00 0.00 0.00 95 1010.5
20260509123021 76 241 0.0 4.0 0.00 0.00 0.00 95 1010.3
20260509122829 76 186 1.0 4.0 0.00 0.00 0.00 95 1010.4
20260509122323 76 225 1.0 4.0 0.00 0.00 0.00 95 1010.4
20260509121821 76 229 1.0 4.0 0.00 0.00 0.00 95 1010.4
20260509121553 76 227 0.0 3.0 0.00 0.00 0.00 95 1010.3
20260509121320 76 211 1.0 5.0 0.00 0.00 0.00 95 1010.2
20260509120821 76 208 1.0 5.0 0.00 0.00 0.00 95 1010.2
20260509120317 76 217 1.0 5.0 0.00 0.00 0.00 95 1010.2
20260509120038 75 197 1.0 6.0 0.00 0.00 0.00 95 1009.9
20260509115818 76 232 1.0 6.0 0.00 0.00 0.00 95 1010.0
20260509115318 76 224 1.0 6.0 0.00 0.00 0.00 95 1010.0
20260509115113 76 220 1.0 4.0 0.00 0.00 0.00 95 1010.0
20260509114609 75 212 1.0 4.0 0.00 0.00 0.00 95 1009.9
20260509114605 76 196 1.0 4.0 0.00 0.00 0.00 94 1010.0
20260509114525 75 212 1.0 4.0 0.00 0.00 0.00 94 1009.9
20260509113807 76 220 1.0 4.0 0.00 0.00 0.00 94 1010.0
20260509113309 76 213 1.0 4.0 0.00 0.00 0.00 94 1010.0
20260509113026 75 242 1.0 4.0 0.00 0.00 0.00 94 1009.8
20260509112809 76 209 1.0 4.0 0.00 0.00 0.00 94 1009.9
20260509112600 76 219 1.0 4.0 0.00 0.00 0.00 94 1009.9
20260509111807 76 220 0.0 4.0 0.00 0.00 0.00 94 1009.9
20260509111511 75 214 0.0 2.0 0.00 0.00 0.00 94 1009.8
20260509111307 76 214 0.0 3.0 0.00 0.00 0.00 94 1009.9